Other Public Products
Issued by NWS Grand Forks, ND

Home | Current Version | Previous Version | Graphics & Text | Print | Product List | Glossary On
Versions: 1 2 3 4 5 6 7 8 9 10 11 12 13 14 15 16 17 18 19 20 21 22 23 24 25 26 27 28 29 30 31 32 33 34 35 36 37 38 39 40 41 42 43 44 45 46 47 48 49 50
000
FPUS83 KFGF 281810
OPUFGF
PRAIRIE TO PINES WEATHER ROUNDUP
NATIONAL WEATHER SERVICE EASTERN NORTH DAKOTA/GRAND FORKS ND
100 PM CDT THU MAY 28 2015

 **SATELLITE DATA USED TO AUGMENT SKY COVER AT AUTOMATED STATIONS**
 *****  WEATHER ACROSS EASTERN NORTH DAKOTA  *****

CITY           SKY/WX    TMP DP  RH WIND       PRES   REMARKS
GRAND FORKS    PTSUNNY   73  61  65 S16G22    29.84F
6HR MIN TEMP:  56; 6HR MAX TEMP:  74; 6HR PCP:  0.04;

GRAND FORKS AF PTSUNNY   74  62  66 S15       29.85F
GRAND CITY NWS   N/A     72 N/A N/A S13         N/A
BUXTON         NOT AVBL
DEVILS LAKE    PTSUNNY   72  59  64 SW7       29.83F
6HR MIN TEMP:  61; 6HR MAX TEMP:  72;

FARGO          PTSUNNY   79  63  57 S23G35    29.84F
6HR MIN TEMP:  61; 6HR MAX TEMP:  79; 6HR PCP:  0.07;

WAHPETON ARPT  PTCLDY    79  54  41 S20G31    29.89F
$$

 *****  WEATHER ACROSS CENTRAL AND WESTERN NORTH DAKOTA  *****

CITY           SKY/WX    TMP DP  RH WIND       PRES   REMARKS
JAMESTOWN      MOSUNNY   76  62  62 SW15      29.84F
6HR MIN TEMP:  60; 6HR MAX TEMP:  76;

BISMARCK       PTSUNNY   74  59  59 MISG      29.87S
6HR MIN TEMP:  59; 6HR MAX TEMP:  74; 6HR PCP: TRACE;

MINOT          CLOUDY    69  56  62 NW13      29.85S
6HR MIN TEMP:  58; 6HR MAX TEMP:  69;

MINOT AFB      CLOUDY    70  68  92 NW12      29.84S
6HR MIN TEMP:  58; 6HR MAX TEMP:  71;

GARRISON         N/A     70  58  65 NW10      29.86R
6HR MIN TEMP:  58; 6HR MAX TEMP:  72;

WILLISTON      MOSUNNY   71  56  58 N10       29.89F
6HR MIN TEMP:  54; 6HR MAX TEMP:  71;

DICKINSON      PTSUNNY   70  53  54 W12G21    29.88F
6HR MIN TEMP:  52; 6HR MAX TEMP:  71;

HETTINGER      MOSUNNY   71  54  54 NW8       29.92S
6HR MIN TEMP:  50; 6HR MAX TEMP:  72;

$$

 *****  OTHER OBSERVATIONS NORTHEAST NORTH DAKOTA  *****

CITY           SKY/WX    TMP DP  RH WIND       PRES   REMARKS
WALHALLA         N/A     66  66 100 MISG      29.86F
LANGDON        CLOUDY    68  59  73 S12       29.86F
CAVALIER       CLOUDY    66  61  82 S6        29.86S
GRAFTON        MOCLDY    72  63  73 SW12      29.86F
CANDO          CLOUDY    66  59  77 CALM      29.86S
FORT TOTTEN    NOT AVBL
ROLLA          CLOUDY    64  59  82 W5        29.87S
RUGBY          NOT AVBL
 ***** THE ABOVE OBSERVATIONS ARE NON NWS ARE NOT QUALITY
        CONTROLLED AND MAY MIS-REPORT RAIN FOR SNOW...
$$

 *****  OTHER OBSERVATIONS SOUTHEAST NORTH DAKOTA *****

CITY           SKY/WX    TMP DP  RH WIND       PRES   REMARKS
COOPERSTOWN    NOT AVBL
VALLEY CITY    FAIR      75  64  69 S21G26    29.85F
OAKES            N/A     77  64  65 S24G30    29.85F
GWINNER        NOT AVBL
SHEYENNE NWR     N/A     80  61  51 SW21      29.95
BUFFALO        NOT AVBL
WYNDMERE         N/A     82  59  44 S25         N/A
 ***** THE ABOVE OBSERVATIONS ARE NON NWS ARE NOT QUALITY
       CONTROLLED AND MAY MIS-REPORT RAIN FOR SNOW...
$$

  *****  WEATHER ACROSS NORTHERN MINNESOTA  *****

CITY           SKY/WX    TMP DP  RH WIND       PRES   REMARKS
FLAG ISLAND    DRIZZLE   55  54  94 CALM      29.91R
WARROAD        MOSUNNY   64  61  88 SW5       29.89F
ROSEAU         MOSUNNY   63  57  82 S9        29.89F
HALLOCK        PTSUNNY   70  63  78 S10       29.85F
THF RVR FALLS  CLOUDY    66  61  82 SE12      29.89F
6HR MIN TEMP:  57; 6HR MAX TEMP:  66; 6HR PCP:  0.40;

HALSTAD        NOT AVBL
FOSSTON        CLOUDY    70  61  73 S13       29.89F
BAUDETTE       LGT RAIN  57  55  93 SE15      29.93S
6HR MIN TEMP:  53; 6HR MAX TEMP:  58; 6HR PCP:  0.46;

WASKISH        CLOUDY    59  55  88 CALM      29.96F
CROOKSTON      MOSUNNY   72  63  73 SE12G17   29.88S
$$
  *****  WEATHER ACROSS CENTRAL AND WEST MINNESOTA  *****

CITY           SKY/WX    TMP DP  RH WIND       PRES   REMARKS
BEMIDJI        PTSUNNY   69  58  68 E5        29.92F
PARK RAPIDS    MOSUNNY   86  51  29 S26G37    29.92F
6HR MIN TEMP:  62; 6HR MAX TEMP:  89;

WADENA         MOSUNNY   79  52  38 S24G33    29.94F
DETROIT LAKES  PTSUNNY   77  59  53 S18G25    29.92F
MOORHEAD       MOSUNNY   79  61  53 S21G28    29.86F
FERGUS FALLS   PTSUNNY   75  57  53 S24G31    29.92F
ELBOW LAKE     FAIR      76  60  57 S26G32    29.94F
6HR MIN TEMP:  62; 6HR MAX TEMP:  77;

MORRIS MN      PTSUNNY   75  54  46 S25       29.94F
STAPLES        SUNNY     79  48  34 SW24G32   29.96F
WHEATON        MOSUNNY   75  57  53 S20G29    29.93S
$$
  *****  WEATHER ELSEWHERE ACROSS MINNESOTA  *****

CITY           SKY/WX    TMP DP  RH WIND       PRES   REMARKS
DULUTH         PTSUNNY   50  44  80 SE14      30.07F
6HR MIN TEMP:  46; 6HR MAX TEMP:  51;

INTRNTL FALLS  LGT RAIN  57  54  89 NW5       29.99S
6HR MIN TEMP:  51; 6HR MAX TEMP:  60; 6HR PCP:  0.08;

ELY            NOT AVBL
CLOQUET        PTSUNNY   54  45  71 E10       30.06F
BRAINERD       MOSUNNY   80  51  36 S21G33    29.98F
6HR MIN TEMP:  58; 6HR MAX TEMP:  80;

HIBBING        PTSUNNY   69  51  52 S9G17     30.00F
6HR MIN TEMP:  51; 6HR MAX TEMP:  70; 6HR PCP: TRACE;

ALEXANDRIA     MOSUNNY   73  55  53 SW13      29.98F
6HR MIN TEMP:  66; 6HR MAX TEMP:  78;

SAINT CLOUD    MOSUNNY   81  53  37 SW23G30   30.00F
6HR MIN TEMP:  59; 6HR MAX TEMP:  81;

MINNEAPOLIS    MOSUNNY   82  53  36 SW13G23   30.03F
6HR MIN TEMP:  64; 6HR MAX TEMP:  82;

$$

  *****  WEATHER ACROSS SOUTH DAKOTA  *****

CITY           SKY/WX    TMP DP  RH WIND       PRES   REMARKS
SIOUX FALLS    PTSUNNY   79  58  48 S17       29.96F
6HR MIN TEMP:  65; 6HR MAX TEMP:  79; 6HR PCP: TRACE;

BROOKINGS      MOSUNNY   73  59  60 S20       29.98F
WATERTOWN      SUNNY     75  60  59 S25G35    29.93F
6HR MIN TEMP:  61; 6HR MAX TEMP:  75; 6HR PCP:  0.26;

HURON            N/A    N/A N/A N/A MISG      29.88F
SISSETON         N/A     81  56  42 SW28G36   29.89F
ABERDEEN       SUNNY     80  60  50 S25G35    29.86F
6HR MIN TEMP:  61; 6HR MAX TEMP:  81;

MITCHELL       MOSUNNY   81  60  48 S18G28    29.90F
PIERRE         MOSUNNY   76  60  57 VRB7      29.85F
6HR MIN TEMP:  59; 6HR MAX TEMP:  77;

MOBRIDGE       PTSUNNY   73  61  65 S6        29.86R
RAPID CITY     MOSUNNY   72  53  51 NE13      29.95S
6HR MIN TEMP:  53; 6HR MAX TEMP:  72;

$$

  *****  SOME WEATHER IN NEARBY STATES *****

CITY           SKY/WX    TMP DP  RH WIND       PRES   REMARKS
GLASGOW MT     PTSUNNY   70  53  54 N12       29.95R
6HR MIN TEMP:  50; 6HR MAX TEMP:  71;

GREAT FALLS MT CLOUDY    54  51  90 W14       30.11S
6HR MIN TEMP:  49; 6HR MAX TEMP:  55; 6HR PCP:  0.15;

CHEYENNE WY    MOSUNNY   65  36  34 W20G26    30.08S
6HR MIN TEMP:  47; 6HR MAX TEMP:  68;

SCOTTSBLUFF NE SUNNY     73  50  44 W13       29.99F
6HR MIN TEMP:  50; 6HR MAX TEMP:  73;

OMAHA NE       CLOUDY    71  61  70 S13       30.03S
6HR MIN TEMP:  62; 6HR MAX TEMP:  71; 6HR PCP: TRACE;

DES MOINES IA  CLOUDY    77  58  51 S13       30.07F
6HR MIN TEMP:  64; 6HR MAX TEMP:  78;

DAVENPORT IA   SUNNY     81  51  35 S13       30.15F
6HR MIN TEMP:  63; 6HR MAX TEMP:  82;

CHICAGO IL     PTSUNNY   81  56  42 SE10G18   30.17F
6HR MIN TEMP:  61; 6HR MAX TEMP:  81;

EAU CLAIRE WI  SUNNY     83  52  34 S20       30.07F
6HR MIN TEMP:  59; 6HR MAX TEMP:  83;

LA CROSSE WI   SUNNY     83  59  44 S13       30.09F
6HR MIN TEMP:  63; 6HR MAX TEMP:  83;

$$

  *****  SOME NATIONAL WEATHER *****

CITY           SKY/WX    TMP DP  RH WIND       PRES   REMARKS
LA GUARDIA NY  PTSUNNY   81  65  58 S12G17    30.13F



USA.gov is the U.S. government's official web portal to all federal, state and local government web resources and services.